Погода в Международном аэропорте Морис Бишоп

Гренада     12°05′49″N   61°40′59″W
темп.,
°C
ветер,
м/с
пор.,
м/с
влажн.,
%
обл.,
%
осадки,
мм/ч
давл.,
гПа
погр.,
м
17 мая, вт
вт1723:00+27в61174100 0.1 1016673
02:00+27в61076100 0.1 1014721
05:00+27всв61079100 0.1 1014657
08:00+28в7107784 0.5 1016887
11:00+29в81074100 0.1 10161019
14:00+29в81073100 0.3 1014954
17:00+28в71076100 0.0 1013923
20:00+27в61081100 0.0 1015913
18 мая, ср
ср1823:00+27в71075100 0.1 1016979
02:00+27в61079100 0.3 1015892
05:00+27в697999 0.1 1015768
08:00+28в6107348 0.3 1016812
11:00+29в796681 0.1 1016934
14:00+29в796697 0.1 1014960
17:00+28в697374 0.1 1013764
20:00+27в5107415 0.1 1015625
19 мая, чт
чт1923:00+27в7117359 0.1 1016718
02:00+27в6107296 0.1 1014643
05:00+27в697396 0.1 1015711
08:00+28в686644 0.3 1016923
11:00+29в68636 0.0 1016891
14:00+29в67655 0.0 1014971
17:00+28в576955 0.0 1014827
20:00+26всв58785 0.0 1016693
20 мая, пт
пт2023:00+26в59770 0.0 1017711
02:00+26в597824 0.1 1015655
05:00+27в597426 0.1 1016760
08:00+28в586986 0.2 1017943
11:00+29в68627 0.0 1018937
14:00+29в78655 0.1 10161039
17:00+28всв68710 0.0 1016998
20:00+26всв6107743 0.0 1017954
21 мая, сб
сб2123:00+27всв610747 0.0 1018914
02:00+26в71074100 0.1 10161000
05:00+26всв6107299 0.0 1017950
08:00+28в7106899 0.1 10181129
11:00+28в81065100 0.1 10181193
14:00+29в796472 0.1 10161151
17:00+28в697167 0.0 10161008
20:00+26в71079100 0.0 1017934